| time (UTC) | temp C | wind direction | speed KPH | gust KPH | rain 1hr cm | rain 24hr cm | rain mn cm | humidity % | barometer mb |
| 20260503193805 | 16 | 108 | 4.8 | 9.7 | 0.00 | 0.05 | 0.03 | 82 | 1012.5 |
| 20260503191306 | 16 | 156 | 9.7 | 12.9 | 0.00 | 0.05 | 0.03 | 80 | 1012.3 |
| 20260503190805 | 16 | 111 | 8.0 | 12.9 | 0.00 | 0.05 | 0.03 | 80 | 1012.2 |
| 20260503184806 | 17 | 309 | 6.4 | 12.9 | 0.00 | 0.05 | 0.03 | 78 | 1012.2 |
| 20260503183806 | 17 | 125 | 12.9 | 14.5 | 0.00 | 0.20 | 0.03 | 76 | 1012.0 |
| 20260503182306 | 17 | 160 | 9.7 | 11.3 | 0.00 | 0.20 | 0.03 | 75 | 1012.0 |
| 20260503180806 | 17 | 133 | 6.4 | 14.5 | 0.00 | 0.20 | 0.03 | 74 | 1012.0 |
| 20260503175806 | 17 | 170 | 14.5 | 17.7 | 0.00 | 0.20 | 0.03 | 74 | 1012.0 |
| 20260503173806 | 17 | 188 | 11.3 | 22.5 | 0.00 | 0.20 | 0.03 | 73 | 1011.9 |
| 20260503173306 | 17 | 184 | 12.9 | 14.5 | 0.00 | 0.20 | 0.03 | 74 | 1012.0 |
| 20260503170806 | 17 | 202 | 19.3 | 24.1 | 0.00 | 0.20 | 0.03 | 74 | 1011.8 |
| 20260503150806 | 16 | 198 | 19.3 | 25.7 | 0.03 | 0.20 | 0.03 | 81 | 1012.3 |
| 20260503150307 | 16 | 215 | 16.1 | 24.1 | 0.03 | 0.20 | 0.03 | 80 | 1012.3 |
| 20260503130806 | 18 | 168 | 17.7 | 33.8 | 0.00 | 0.18 | 0.00 | 61 | 1012.4 |
| 20260503110806 | 22 | 151 | 20.9 | 38.6 | 0.00 | 0.18 | 0.00 | 36 | 1012.1 |
| 20260503080807 | 21 | 153 | 22.5 | 22.5 | 0.00 | 0.18 | 0.00 | 43 | 1012.0 |
| 20260503070807 | 18 | 147 | 9.7 | 17.7 | 0.00 | 0.18 | 0.00 | 54 | 1012.1 |
| 20260503053807 | 16 | 22 | 8.0 | 24.1 | 0.00 | 0.18 | 0.00 | 68 | 1012.0 |
| 20260503052808 | 15 | 125 | 12.9 | 22.5 | 0.00 | 0.18 | 0.00 | 70 | 1011.9 |
| 20260503050807 | 15 | 111 | 12.9 | 20.9 | 0.00 | 0.18 | 0.00 | 73 | 1012.0 |
| 20260503050308 | 15 | 130 | 11.3 | 20.9 | 0.00 | 0.18 | 0.00 | 72 | 1011.9 |
| 20260503043807 | 15 | 90 | 12.9 | 22.5 | 0.00 | 0.18 | 0.00 | 75 | 1011.9 |
| 20260503041308 | 15 | 135 | 17.7 | 22.5 | 0.00 | 0.18 | 0.00 | 77 | 1011.9 |
| 20260503040807 | 15 | 135 | 16.1 | 22.5 | 0.00 | 0.18 | 0.00 | 78 | 1011.9 |
| 20260503034900 | 15 | 94 | 11.3 | 22.5 | 0.00 | 0.18 | 0.00 | 82 | 1012.0 |
| 20260503034808 | 15 | 94 | 11.3 | 22.5 | 0.00 | 0.18 | 0.00 | 82 | 1012.0 |
| 20260503033807 | 15 | 151 | 16.1 | 19.3 | 0.00 | 0.18 | 0.00 | 85 | 1012.1 |
| 20260503030807 | 14 | 127 | 3.2 | 6.4 | 0.00 | 0.18 | 0.00 | 90 | 1012.1 |
| 20260503025810 | 14 | 293 | 0.0 | 6.4 | 0.00 | 0.18 | 0.00 | 90 | 1012.1 |
| 20260503023807 | 14 | 94 | 1.6 | 6.4 | 0.00 | 0.18 | 0.00 | 90 | 1012.6 |
| 20260503023308 | 14 | 136 | 6.4 | 8.0 | 0.00 | 0.18 | 0.00 | 90 | 1012.6 |
| 20260503020807 | 14 | 320 | 0.0 | 8.0 | 0.00 | 0.18 | 0.00 | 91 | 1012.6 |
| 20260503014308 | 14 | 348 | 1.6 | 9.7 | 0.00 | 0.18 | 0.00 | 91 | 1012.8 |
| 20260503013807 | 14 | 143 | 6.4 | 8.0 | 0.00 | 0.18 | 0.00 | 91 | 1012.9 |
| 20260503011808 | 14 | 84 | 3.2 | 6.4 | 0.00 | 0.18 | 0.00 | 91 | 1013.2 |
| 20260503010807 | 14 | 123 | 0.0 | 0.0 | 0.00 | 0.18 | 0.00 | 90 | 1013.4 |
| 20260503005308 | 14 | 28 | 1.6 | 6.4 | 0.00 | 0.18 | 0.00 | 90 | 1013.4 |
| 20260503003807 | 14 | 163 | 0.0 | 8.0 | 0.00 | 0.18 | 0.00 | 89 | 1013.5 |
| 20260503002808 | 14 | 45 | 4.8 | 11.3 | 0.00 | 0.18 | 0.00 | 89 | 1013.8 |
| 20260503000807 | 14 | 345 | 4.8 | 9.7 | 0.00 | 0.18 | 0.00 | 89 | 1014.2 |
| 20260503000308 | 15 | 327 | 6.4 | 14.5 | 0.00 | 0.18 | 0.00 | 89 | 1014.2 |
| 20260502233808 | 15 | 122 | 19.3 | 30.6 | 0.00 | 0.18 | 0.00 | 87 | 1014.3 |
| 20260502231308 | 15 | 137 | 3.2 | 9.7 | 0.00 | 0.18 | 0.00 | 87 | 1014.0 |
| 20260502230808 | 15 | 118 | 8.0 | 9.7 | 0.00 | 0.18 | 0.00 | 87 | 1014.0 |
| 20260502224808 | 15 | 84 | 4.8 | 6.4 | 0.00 | 0.18 | 0.18 | 86 | 1014.2 |
| 20260502223808 | 15 | 113 | 3.2 | 3.2 | 0.00 | 0.18 | 0.18 | 86 | 1014.3 |
| 20260502220808 | 15 | 46 | 1.6 | 3.2 | 0.00 | 0.18 | 0.18 | 87 | 1014.4 |
| 20260502215808 | 15 | 81 | 0.0 | 8.0 | 0.00 | 0.18 | 0.18 | 87 | 1014.3 |
| 20260502213808 | 15 | 88 | 3.2 | 12.9 | 0.00 | 0.18 | 0.18 | 87 | 1014.3 |
| 20260502213309 | 15 | 59 | 3.2 | 11.3 | 0.00 | 0.18 | 0.18 | 87 | 1014.3 |
| 20260502210808 | 15 | 300 | 4.8 | 11.3 | 0.00 | 0.18 | 0.18 | 87 | 1014.6 |
| 20260502204309 | 15 | 355 | 9.7 | 19.3 | 0.03 | 0.18 | 0.18 | 87 | 1014.9 |
| 20260502203808 | 15 | 98 | 6.4 | 16.1 | 0.03 | 0.18 | 0.18 | 87 | 1014.8 |
| 20260502201809 | 15 | 158 | 3.2 | 16.1 | 0.10 | 0.18 | 0.18 | 86 | 1015.1 |
| 20260502200808 | 15 | 57 | 8.0 | 12.9 | 0.13 | 0.18 | 0.18 | 86 | 1015.3 |